This is the latest recevied weather packets stored in our database for station/object K5SVV. If no packets are shown the sender has not sent any weather packets the latest 10 day(s).
| Time | Temp. | Humidity | Pressure | Rain* | Wind** | Luminosity | Snow |
|---|---|---|---|---|---|---|---|
| 1777743319 | 21.67° C | 48% | 1021.2 hPa | 0 mm | - | 781 W/m² | - |
| 1777743017 | 21.67° C | 47% | 1021.4 hPa | 0 mm | - | 787 W/m² | - |
| 1777742714 | 21.67° C | 54% | 1021.4 hPa | 0 mm | - | 776 W/m² | - |
| 1777742410 | 20.56° C | 54% | 1021.5 hPa | 0 mm | - | 775 W/m² | - |
| 1777742106 | 20.56° C | 50% | 1021.5 hPa | 0 mm | - | 779 W/m² | - |
| 1777741804 | 20.56° C | 51% | 1021.6 hPa | 0 mm | - | 785 W/m² | - |
| 1777741500 | 20.56° C | 55% | 1021.6 hPa | 0 mm | - | 787 W/m² | - |
| 1777741196 | 20.56° C | 51% | 1021.5 hPa | 0 mm | - | 778 W/m² | - |
| 1777740893 | 20° C | 50% | 1021.4 hPa | 0 mm | - | 757 W/m² | - |
| 1777740590 | 20.56° C | 53% | 1021.5 hPa | 0 mm | - | 767 W/m² | - |
| 1777740287 | 20° C | 55% | 1021.4 hPa | 0 mm | - | 785 W/m² | - |
| 1777739984 | 20° C | 53% | 1021.7 hPa | 0 mm | - | 798 W/m² | - |
| 1777739679 | 19.44° C | 57% | 1021.8 hPa | 0 mm | - | 770 W/m² | - |
| 1777739377 | 19.44° C | 54% | 1021.5 hPa | 0 mm | - | 778 W/m² | - |
| 1777739074 | 19.44° C | 55% | 1021.4 hPa | 0 mm | - | 769 W/m² | - |
| 1777738771 | 19.44° C | 57% | 1021.5 hPa | 0 mm | - | 752 W/m² | - |
| 1777738467 | 19.44° C | 55% | 1021.7 hPa | 0 mm | - | 777 W/m² | - |
| 1777738165 | 19.44° C | 57% | 1021.7 hPa | 0 mm | - | 821 W/m² | - |
| 1777737863 | 18.89° C | 52% | 1021.6 hPa | 0 mm | - | 826 W/m² | - |
| 1777737562 | 18.89° C | 57% | 1021.4 hPa | 0 mm | - | 842 W/m² | - |
| 1777737260 | 18.89° C | 62% | 1021.3 hPa | 0 mm | - | 847 W/m² | - |
| 1777736954 | 18.33° C | 68% | 1021.2 hPa | 0 mm | - | 802 W/m² | - |
| 1777736043 | 18.33° C | 66% | 1021.4 hPa | 0 mm | - | 789 W/m² | - |
| 1777735740 | 17.78° C | 72% | 1021.3 hPa | 0 mm | - | 767 W/m² | - |
| 1777735438 | 17.78° C | 71% | 1021.4 hPa | 0 mm | - | 761 W/m² | - |
* Rain latest hour (hover to see other rain measurements)
** Current wind speed in m/s (hover to see current wind gust speed)